Date String (YYYY-MM-DD hh:mm:ss) UTC,Instrument flags,absolute air pressure of the measurement (hPa),sample flow rate (lpm),inlet stack bypass flow (lpm),air temperature of the measurement (°C),ambient temperature measured by the external sensor (°C),aerosol sample conditioner tube jacket temperature (°C),OPC LED temperature (°C),internal box temperature (°C),relative humidity of the measurement (%),span deviation,mass concentration of particles derived from Lorenz-Mie calculation of OPC scattering (μg/m³),mass concentration of particles derived from Lorenz-Mie calculation of OPC scattering (μg/m³),mass concentration of particles derived from Lorenz-Mie calculation of OPC scattering (μg/m³)
DateTimeUTC,F1_M11,P_M11,Q1_M11,Q2_M11,T1_M11,T2_M11,T3_M11,T4_M11,T5_M11,U1_M11,ZSPAN_M11,X0_M11,X2_M11,X1_M11
2024-03-04 20:00:00,SystemResetWarning,0821.6,5.00,000.00,019.1,018.5,000.0,027.4,020.8,13.3,0000.0,0009.56,0002.27,0001.31
2024-03-04 20:01:00,SystemResetWarning,0821.6,5.00,000.00,019.1,018.5,000.0,027.4,020.8,13.3,0000.0,0009.88,0002.29,0001.31
2024-03-04 20:02:00,SystemResetWarning,0821.6,5.00,000.00,019.1,018.5,000.0,027.4,020.8,13.3,0000.0,0010.46,0002.25,0001.30
2024-03-04 20:03:00,SystemResetWarning,0821.5,5.00,000.00,019.1,018.5,000.0,027.5,020.8,13.4,0000.0,0010.70,0002.24,0001.30
2024-03-04 20:04:00,SystemResetWarning,0821.6,5.00,000.00,019.1,018.5,000.0,027.5,020.8,13.5,0000.0,0010.07,0002.16,0001.30
2024-03-04 20:05:00,SystemResetWarning,0821.7,5.00,000.00,019.1,018.5,000.0,027.5,020.8,13.4,0000.0,0009.68,0002.11,0001.29
2024-03-04 20:06:00,SystemResetWarning,0821.6,5.00,000.00,019.1,018.5,000.0,027.5,020.8,13.3,0000.0,0009.04,0002.07,0001.29
2024-03-04 20:07:00,SystemResetWarning,0821.7,4.99,000.00,019.1,018.5,000.0,027.5,020.9,13.3,0000.0,0008.99,0002.04,0001.30
2024-03-04 20:08:00,SystemResetWarning,0821.6,4.99,000.00,019.1,018.5,000.0,027.5,020.8,13.3,0000.0,0009.61,0002.11,0001.31
2024-03-04 20:09:00,SystemResetWarning,0821.6,5.00,000.00,019.1,018.5,000.0,027.5,020.9,13.2,0000.0,0009.23,0002.19,0001.32
2024-03-04 20:10:00,SystemResetWarning,0821.6,5.00,000.00,019.1,018.5,000.0,027.5,020.8,13.2,0000.0,0008.96,0002.20,0001.33
2024-03-04 20:11:00,SystemResetWarning,0821.6,5.00,000.00,019.1,018.5,000.0,027.5,020.9,13.2,0000.0,0008.93,0002.18,0001.33
2024-03-04 20:12:00,SystemResetWarning,0821.9,5.01,000.00,019.1,018.5,000.0,027.5,020.9,13.2,0000.0,0008.66,0002.18,0001.34
2024-03-04 20:13:00,SystemResetWarning,0821.8,5.01,000.00,019.2,018.5,000.0,027.5,020.9,13.3,0000.0,0008.01,0002.22,0001.36
2024-03-04 20:14:00,SystemResetWarning,0821.7,5.01,000.00,019.2,018.6,000.0,027.5,020.9,13.3,0000.0,0007.99,0002.24,0001.36
2024-03-04 20:15:00,SystemResetWarning,0821.3,4.98,000.00,019.2,018.6,000.0,027.5,020.9,13.3,0000.0,0008.15,0002.26,0001.37
2024-03-04 20:16:00,SystemResetWarning,0821.3,4.99,000.00,019.2,018.6,000.0,027.5,020.9,13.3,0000.0,0007.87,0002.29,0001.38
2024-03-04 20:17:00,SystemResetWarning,0821.4,5.01,000.00,019.2,018.6,000.0,027.5,020.9,13.5,0000.0,0007.75,0002.28,0001.39
2024-03-04 20:18:00,SystemResetWarning,0821.4,5.01,000.00,019.2,018.6,000.0,027.5,020.9,13.6,0000.0,0007.85,0002.31,0001.39
2024-03-04 20:19:00,SystemResetWarning,0821.5,5.00,000.00,019.2,018.6,000.0,027.5,020.9,13.6,0000.0,0007.71,0002.28,0001.40
2024-03-04 20:20:00,SystemResetWarning,0821.3,5.00,000.00,019.2,018.7,000.0,027.6,020.9,13.2,0000.0,0007.51,0002.24,0001.40
2024-03-04 20:21:00,SystemResetWarning,0821.4,5.00,000.00,019.2,018.7,000.0,027.6,020.9,13.3,0000.0,0007.82,0002.24,0001.40
2024-03-04 20:22:00,SystemResetWarning,0821.8,5.00,000.00,019.2,018.6,000.0,027.6,021.0,13.3,0000.0,0008.04,0002.23,0001.40
2024-03-04 20:23:00,SystemResetWarning,0822.0,4.99,000.00,019.3,018.7,000.0,027.6,020.9,13.3,0000.0,0008.90,0002.23,0001.39
2024-03-04 20:24:00,SystemResetWarning,0822.0,4.99,000.00,019.3,018.7,000.0,027.6,020.9,13.4,0000.0,0009.74,0002.22,0001.37
2024-03-04 20:25:00,SystemResetWarning,0821.9,5.01,000.00,019.3,018.7,000.0,027.6,020.9,13.4,0000.0,0009.80,0002.24,0001.38
2024-03-04 20:26:00,SystemResetWarning,0821.4,5.01,000.00,019.3,018.7,000.0,027.6,020.9,13.4,0000.0,0009.29,0002.24,0001.39
2024-03-04 20:27:00,SystemResetWarning,0821.4,5.01,000.00,019.3,018.7,000.0,027.6,021.0,13.5,0000.0,0009.28,0002.20,0001.38
2024-03-04 20:28:00,SystemResetWarning,0821.4,4.99,000.00,019.3,018.7,000.0,027.6,021.0,13.5,0000.0,0009.71,0002.20,0001.39
2024-03-04 20:29:00,SystemResetWarning,0821.3,4.99,000.00,019.3,018.7,000.0,027.6,021.0,13.5,0000.0,0009.86,0002.20,0001.39
2024-03-04 20:30:00,SystemResetWarning,0821.3,5.00,000.00,019.3,018.7,000.0,027.6,021.0,13.5,0000.0,0009.29,0002.25,0001.38
2024-03-04 20:31:00,SystemResetWarning,0821.3,5.00,000.00,019.4,018.8,000.0,027.6,021.0,13.5,0000.0,0009.06,0002.28,0001.37
2024-03-04 20:32:00,SystemResetWarning,0821.3,5.00,000.00,019.4,018.8,000.0,027.6,021.0,13.6,0000.0,0008.79,0002.24,0001.37
2024-03-04 20:33:00,SystemResetWarning,0821.3,5.00,000.00,019.4,018.8,000.0,027.6,021.1,13.3,0000.0,0008.84,0002.20,0001.37
2024-03-04 20:34:00,SystemResetWarning,0821.3,5.00,000.00,019.4,018.9,000.0,027.6,021.1,13.3,0000.0,0008.39,0002.19,0001.38
2024-03-04 20:35:00,SystemResetWarning,0821.3,5.00,000.00,019.4,018.9,000.0,027.6,021.1,13.5,0000.0,0007.60,0002.17,0001.38
2024-03-04 20:36:00,SystemResetWarning,0821.3,5.00,000.00,019.5,018.9,000.0,027.6,021.1,13.3,0000.0,0007.44,0002.17,0001.38
2024-03-04 20:37:00,SystemResetWarning,0821.3,5.01,000.00,019.5,018.9,000.0,027.7,021.2,13.4,0000.0,0007.46,0002.13,0001.37
2024-03-04 20:38:00,SystemResetWarning,0821.3,5.00,000.00,019.5,019.0,000.0,027.7,021.1,13.4,0000.0,0007.73,0002.14,0001.35
2024-03-04 20:39:00,SystemResetWarning,0821.3,5.00,000.00,019.5,019.0,000.0,027.7,021.1,13.3,0000.0,0007.69,0002.19,0001.35
2024-03-04 20:40:00,SystemResetWarning,0821.3,5.00,000.00,019.5,019.0,000.0,027.7,021.1,13.3,0000.0,0007.34,0002.19,0001.35
2024-03-04 20:41:00,SystemResetWarning,0821.3,4.99,000.00,019.5,019.0,000.0,027.7,021.2,13.5,0000.0,0007.71,0002.19,0001.35
2024-03-04 20:42:00,SystemResetWarning,0821.4,5.01,000.00,019.5,019.0,000.0,027.7,021.2,13.3,0000.0,0008.11,0002.13,0001.34
2024-03-04 20:43:00,SystemResetWarning,0821.3,5.01,000.00,019.5,019.0,000.0,027.7,021.2,13.4,0000.0,0008.04,0002.11,0001.35
2024-03-04 20:44:00,SystemResetWarning,0821.3,5.00,000.00,019.5,019.0,000.0,027.8,021.2,13.2,0000.0,0008.09,0002.14,0001.35
2024-03-04 20:45:00,SystemResetWarning,0821.3,4.99,000.00,019.5,019.0,000.0,027.8,021.3,13.2,0000.0,0008.01,0002.15,0001.35
2024-03-04 20:46:00,SystemResetWarning,0821.3,5.00,000.00,019.6,019.0,000.0,027.8,021.3,13.3,0000.0,0007.71,0002.13,0001.35
2024-03-04 20:47:00,SystemResetWarning,0821.3,4.99,000.00,019.6,019.0,000.0,027.8,021.3,13.5,0000.0,0008.48,0002.13,0001.35
2024-03-04 20:48:00,SystemResetWarning,0821.3,5.00,000.00,019.6,019.1,000.0,027.8,021.3,13.4,0000.0,0008.73,0002.14,0001.36
2024-03-04 20:49:00,SystemResetWarning,0821.3,5.00,000.00,019.6,019.1,000.0,027.8,021.3,13.6,0000.0,0008.88,0002.15,0001.37
2024-03-04 20:50:00,SystemResetWarning,0821.2,5.00,000.00,019.6,019.1,000.0,027.8,021.3,13.3,0000.0,0009.15,0002.15,0001.38
2024-03-04 20:51:00,SystemResetWarning,0821.2,5.00,000.00,019.6,019.1,000.0,027.9,021.3,13.2,0000.0,0009.65,0002.18,0001.39
2024-03-04 20:52:00,SystemResetWarning,0821.2,5.00,000.00,019.6,019.1,000.0,027.9,021.3,13.1,0000.0,0009.37,0002.17,0001.40
2024-03-04 20:53:00,SystemResetWarning,0821.3,5.00,000.00,019.6,019.1,000.0,027.9,021.3,13.1,0000.0,0009.14,0002.20,0001.42
2024-03-04 20:54:00,SystemResetWarning,0821.3,5.01,000.00,019.6,019.1,000.0,027.9,021.3,13.2,0000.0,0009.16,0002.25,0001.44
2024-03-04 20:55:00,SystemResetWarning,0821.3,5.00,000.00,019.6,019.1,000.0,027.9,021.3,13.3,0000.0,0008.91,0002.26,0001.44
2024-03-04 20:56:00,SystemResetWarning,0821.4,4.98,000.00,019.6,019.1,000.0,027.9,021.3,13.3,0000.0,0008.93,0002.29,0001.45
2024-03-04 20:57:00,SystemResetWarning,0821.3,5.00,000.00,019.7,019.1,000.0,027.9,021.3,13.5,0000.0,0009.02,0002.34,0001.47
2024-03-04 20:58:00,SystemResetWarning,0821.3,5.01,000.00,019.7,019.1,000.0,027.9,021.4,13.3,0000.0,0008.17,0002.36,0001.48
2024-03-04 20:59:00,SystemResetWarning,0821.3,5.00,000.00,019.7,019.1,000.0,027.9,021.4,13.4,0000.0,0007.91,0002.41,0001.47
